Regional Weather Roundup
Issued by NWS Goodland, KS

Home | Current Version | Previous Version | Graphics & Text | Print | Product List | Glossary Off
Versions: 1 2 3 4 5 6 7 8 9 10 11 12 13 14 15 16 17 18 19 20 21 22 23 24 25 26 27 28 29 30 31 32 33 34 35 36 37 38 39 40 41 42 43 44 45 46 47 48 49 50

000
ASUS43 KGLD 232259
RWRGLD

GOODLAND FORECAST AREA HOURLY WEATHER ROUNDUP
NATIONAL WEATHER SERVICE GOODLAND KS
500 PM MDT WED MAY 23 2018

...OFFICIAL OBSERVATIONS...

CITY           SKY/WX    TMP DP  RH WIND       PRES   REMARKS
GOODLAND KS    PTSUNNY   84  58  40 S23G37    29.91F
HILL CITY KS   CLOUDY    85  60  42 S14G29    29.93S
IMPERIAL NEB   PTSUNNY   86  54  33 SE17      29.88F
MCCOOK NEB     MOSUNNY   85  59  41 SE15G26   29.89F
AKRON CO       PTSUNNY   76  52  43 N12G28    29.93R
BURLINGTON CO  MOSUNNY   81  49  32 S23G31    29.93F
LIMON CO       MOSUNNY   79  36  21 S21G32    29.96F
$$

...UNOFFICIAL OBSERVATIONS...

CITY           SKY/WX    TMP DP  RH WIND       PRES   REMARKS
NORTON KS      MOSUNNY   90  57  33 S16G22    29.92
SHARON SPRINGS   N/A     84  58  41 MISG        N/A
KIT CARSON CO    N/A     78  47  33 MISG        N/A
YUMA CO        FAIR      82  45  26 S18G25    29.88F
$$



USA.gov is the U.S. government's official web portal to all federal, state and local government web resources and services.